• In Österreich
  • Länderverzeichnis
  • Für 7 Tage
  • Wassertemperatur
  • Satellitenkarten
  • Wetterkarte
  • News
  • Widgets
  • user-avatar
    Anmelden

    Stündliche Wetter Montana

    Heute, 14 August, Dienstag

    Zeit Temperatur Niederschläge Wind Luftdruck Luftfeuchtigkeit
    00:00 +21°C° 0 mm 1 m/S 733 mmHg 56%
    01:00 +21°C° 0 mm 1 m/S 733 mmHg 57%
    02:00 +20°C° 0 mm 2 m/S 733 mmHg 56%
    03:00 +20°C° 0 mm 2 m/S 733 mmHg 57%
    04:00 +20°C° 0 mm 1 m/S 733 mmHg 58%
    05:00 +19°C° 0 mm 1 m/S 733 mmHg 59%
    06:00 +21°C° 0 mm 1 m/S 733 mmHg 55%
    07:00 +23°C° 0 mm 1 m/S 734 mmHg 52%
    08:00 +25°C° 0 mm 1 m/S 734 mmHg 48%
    09:00 +27°C° 0 mm 1 m/S 734 mmHg 44%
    10:00 +29°C° 0 mm 1 m/S 734 mmHg 40%
    11:00 +31°C° 0 mm 2 m/S 734 mmHg 35%
    12:00 +32°C° 0 mm 2 m/S 734 mmHg 33%
    13:00 +32°C° 0 mm 2 m/S 733 mmHg 31%
    14:00 +32°C° 0 mm 2 m/S 733 mmHg 32%
    15:00 +32°C° 0 mm 2 m/S 733 mmHg 32%
    16:00 +32°C° 0 mm 2 m/S 733 mmHg 33%
    17:00 +32°C° 0 mm 2 m/S 733 mmHg 33%
    18:00 +30°C° 0,1 mm 2 m/S 733 mmHg 39%
    19:00 +27°C° 0,1 mm 2 m/S 732 mmHg 45%
    20:00 +25°C° 0,1 mm 1 m/S 732 mmHg 51%
    21:00 +24°C° 0,1 mm 1 m/S 733 mmHg 52%
    22:00 +24°C° 0,1 mm 1 m/S 733 mmHg 53%
    23:00 +23°C° 0,1 mm 1 m/S 733 mmHg 54%

    Morgen, 15 August, Mittwoch

    Zeit Temperatur Niederschläge Wind Luftdruck Luftfeuchtigkeit
    00:00 +23°C° 0 mm 1 m/S 733 mmHg 55%
    01:00 +22°C° 0 mm 1 m/S 733 mmHg 55%
    02:00 +22°C° 0 mm 1 m/S 733 mmHg 56%
    03:00 +21°C° 0 mm 1 m/S 733 mmHg 57%
    04:00 +20°C° 0 mm 1 m/S 733 mmHg 59%
    05:00 +20°C° 0 mm 1 m/S 733 mmHg 60%
    06:00 +21°C° 0 mm 1 m/S 733 mmHg 57%
    07:00 +23°C° 0 mm 1 m/S 733 mmHg 54%
    08:00 +24°C° 0 mm 1 m/S 733 mmHg 50%
    09:00 +26°C° 0 mm 1 m/S 733 mmHg 46%
    10:00 +28°C° 0 mm 2 m/S 734 mmHg 41%
    11:00 +30°C° 0 mm 2 m/S 734 mmHg 36%
    12:00 +31°C° 0 mm 2 m/S 734 mmHg 34%
    13:00 +32°C° 0 mm 2 m/S 733 mmHg 32%
    14:00 +34°C° 0 mm 2 m/S 733 mmHg 31%
    15:00 +32°C° 0 mm 2 m/S 733 mmHg 31%
    16:00 +32°C° 0 mm 2 m/S 733 mmHg 31%
    17:00 +33°C° 0 mm 3 m/S 733 mmHg 32%
    18:00 +30°C° 0 mm 2 m/S 733 mmHg 37%
    19:00 +27°C° 0 mm 2 m/S 733 mmHg 42%
    20:00 +25°C° 0 mm 1 m/S 733 mmHg 47%
    21:00 +24°C° 0 mm 1 m/S 733 mmHg 49%
    22:00 +23°C° 0 mm 1 m/S 733 mmHg 51%
    23:00 +23°C° 0 mm 1 m/S 734 mmHg 52%

    übermorgen, 16 August, Donnerstag

    Zeit Temperatur Niederschläge Wind Luftdruck Luftfeuchtigkeit
    00:00 +22°C° 0 mm 1 m/S 733 mmHg 54%
    01:00 +22°C° 0 mm 1 m/S 733 mmHg 55%
    02:00 +21°C° 0 mm 1 m/S 733 mmHg 57%
    03:00 +21°C° 0 mm 1 m/S 733 mmHg 59%
    04:00 +20°C° 0 mm 1 m/S 733 mmHg 61%
    05:00 +20°C° 0 mm 1 m/S 733 mmHg 63%
    06:00 +21°C° 0 mm 1 m/S 733 mmHg 58%
    07:00 +23°C° 0 mm 1 m/S 734 mmHg 54%
    08:00 +25°C° 0 mm 1 m/S 734 mmHg 50%
    09:00 +27°C° 0 mm 1 m/S 734 mmHg 44%
    10:00 +29°C° 0 mm 2 m/S 734 mmHg 38%
    11:00 +31°C° 0 mm 2 m/S 734 mmHg 33%
    12:00 +32°C° 0 mm 2 m/S 734 mmHg 31%
    13:00 +32°C° 0 mm 2 m/S 733 mmHg 28%
    14:00 +34°C° 0 mm 3 m/S 733 mmHg 26%
    15:00 +34°C° 0 mm 3 m/S 733 mmHg 27%
    16:00 +34°C° 0 mm 2 m/S 733 mmHg 27%
    17:00 +32°C° 0 mm 2 m/S 732 mmHg 27%
    18:00 +30°C° 0 mm 2 m/S 732 mmHg 32%
    19:00 +27°C° 0 mm 2 m/S 733 mmHg 38%
    20:00 +25°C° 0 mm 1 m/S 733 mmHg 43%
    21:00 +24°C° 0 mm 1 m/S 733 mmHg 44%
    22:00 +24°C° 0 mm 1 m/S 733 mmHg 46%
    23:00 +23°C° 0 mm 1 m/S 733 mmHg 48%

    17 August, Freitag

    Zeit Temperatur Niederschläge Wind Luftdruck Luftfeuchtigkeit
    00:00 +22°C° 0 mm 1 m/S 733 mmHg 51%
    01:00 +22°C° 0 mm 1 m/S 733 mmHg 54%
    02:00 +21°C° 0 mm 1 m/S 733 mmHg 57%
    03:00 +21°C° 0 mm 1 m/S 733 mmHg 59%
    04:00 +20°C° 0 mm 1 m/S 733 mmHg 61%
    05:00 +20°C° 0 mm 1 m/S 733 mmHg 64%
    06:00 +22°C° 0 mm 1 m/S 734 mmHg 59%
    07:00 +24°C° 0 mm 1 m/S 734 mmHg 55%
    08:00 +26°C° 0 mm 1 m/S 734 mmHg 51%
    09:00 +28°C° 0 mm 1 m/S 734 mmHg 45%
    10:00 +30°C° 0 mm 1 m/S 734 mmHg 39%
    11:00 +32°C° 0 mm 2 m/S 734 mmHg 33%
    12:00 +32°C° 0 mm 2 m/S 734 mmHg 31%
    13:00 +34°C° 0 mm 2 m/S 734 mmHg 29%
    14:00 +35°C° 0 mm 2 m/S 733 mmHg 26%
    15:00 +35°C° 0 mm 2 m/S 733 mmHg 27%
    16:00 +34°C° 0 mm 2 m/S 733 mmHg 28%
    17:00 +34°C° 0 mm 2 m/S 733 mmHg 28%
    18:00 +31°C° 0 mm 1 m/S 733 mmHg 33%
    19:00 +29°C° 0 mm 1 m/S 733 mmHg 37%
    20:00 +26°C° 0 mm 1 m/S 733 mmHg 42%
    21:00 +26°C° 0 mm 1 m/S 733 mmHg 44%
    22:00 +25°C° 0 mm 1 m/S 733 mmHg 45%
    23:00 +24°C° 0 mm 1 m/S 734 mmHg 47%

    18 August, Samstag

    Zeit Temperatur Niederschläge Wind Luftdruck Luftfeuchtigkeit
    00:00 +24°C° 0 mm 1 m/S 734 mmHg 49%
    01:00 +23°C° 0 mm 1 m/S 734 mmHg 50%
    02:00 +23°C° 0 mm 1 m/S 734 mmHg 51%
    03:00 +22°C° 0 mm 1 m/S 734 mmHg 54%
    04:00 +22°C° 0 mm 1 m/S 734 mmHg 56%
    05:00 +21°C° 0 mm 1 m/S 734 mmHg 59%
    06:00 +23°C° 0 mm 1 m/S 734 mmHg 56%
    07:00 +24°C° 0 mm 1 m/S 734 mmHg 54%
    08:00 +26°C° 0 mm 1 m/S 735 mmHg 51%
    09:00 +28°C° 0 mm 1 m/S 735 mmHg 46%
    10:00 +29°C° 0 mm 1 m/S 735 mmHg 41%
    11:00 +31°C° 0 mm 2 m/S 735 mmHg 36%
    12:00 +32°C° 0 mm 2 m/S 735 mmHg 34%
    13:00 +34°C° 0 mm 2 m/S 734 mmHg 32%
    14:00 +35°C° 0 mm 2 m/S 734 mmHg 30%
    15:00 +34°C° 0 mm 2 m/S 734 mmHg 31%
    16:00 +34°C° 0 mm 2 m/S 734 mmHg 32%
    17:00 +34°C° 0 mm 2 m/S 734 mmHg 33%
    18:00 +31°C° 0,1 mm 2 m/S 734 mmHg 39%
    19:00 +28°C° 0,1 mm 1 m/S 734 mmHg 44%
    20:00 +26°C° 0,1 mm 1 m/S 734 mmHg 49%
    21:00 +25°C° 0,2 mm 1 m/S 734 mmHg 53%
    22:00 +24°C° 0,2 mm 1 m/S 735 mmHg 57%
    23:00 +23°C° 0,2 mm 1 m/S 735 mmHg 61%

    19 August, Sonntag

    Zeit Temperatur Niederschläge Wind Luftdruck Luftfeuchtigkeit
    00:00 +23°C° 0 mm 1 m/S 735 mmHg 63%
    01:00 +22°C° 0 mm 1 m/S 735 mmHg 64%
    02:00 +22°C° 0 mm 1 m/S 735 mmHg 66%
    03:00 +22°C° 0 mm 1 m/S 735 mmHg 67%
    04:00 +21°C° 0 mm 1 m/S 735 mmHg 68%
    05:00 +21°C° 0 mm 1 m/S 735 mmHg 70%
    06:00 +23°C° 0 mm 1 m/S 735 mmHg 65%
    07:00 +24°C° 0 mm 1 m/S 735 mmHg 61%
    08:00 +26°C° 0 mm 1 m/S 736 mmHg 56%
    09:00 +27°C° 0 mm 1 m/S 736 mmHg 51%
    10:00 +29°C° 0 mm 2 m/S 736 mmHg 45%
    11:00 +31°C° 0 mm 2 m/S 736 mmHg 39%
    12:00 +32°C° 0 mm 2 m/S 735 mmHg 38%
    13:00 +32°C° 0 mm 2 m/S 735 mmHg 36%
    14:00 +34°C° 0 mm 2 m/S 735 mmHg 34%
    15:00 +34°C° 0 mm 2 m/S 735 mmHg 35%
    16:00 +32°C° 0 mm 2 m/S 734 mmHg 36%
    17:00 +32°C° 0 mm 2 m/S 734 mmHg 37%
    18:00 +30°C° 0 mm 2 m/S 734 mmHg 41%
    19:00 +28°C° 0 mm 1 m/S 734 mmHg 45%
    20:00 +26°C° 0 mm 1 m/S 735 mmHg 50%
    21:00 +26°C° 0,1 mm 1 m/S 735 mmHg 52%
    22:00 +25°C° 0,1 mm 1 m/S 735 mmHg 55%
    23:00 +24°C° 0,1 mm 1 m/S 735 mmHg 58%
    Mehr zeigen